Location: Jefferson
(30.9666°N, 81.7901°W)
Time: 20:17:25
(UTC+00:00)

ACS3 Solar Sail - Pass Details

Date: 24 September 2024
Orbit: 960 x 1036 km, 97.4° (Epoch: 09 October)

Event Time Altitude Azimuth Distance (km) Brightness Sun altitude
Exits shadow 01:52:13 72° 336° (NNW) 1,085 2.0 -32.4°
Drops below altitude 10° 01:57:57 10° 348° (NNW) 2,842 4.6 -33.6°
Sets 02:00:28 0° 349° (NNW) 3,795 5.3 -34.1°
